Lid_Strength_Index
13 15 16 15 14 14 16 16 17 15 13 15 15 15 13 13 14 15 15 15 15 15 14 14 14 14 14 13 13 13 12 12 10 9 8 7 7 6 4 4 3 2 2 3
15 17 14 14 14 15 16 17 17 15 14 15 15 15 15 14 14 14 14 15 15 15 14 14 14 14 14 14 14 13 13 12 12 10 10 9 9 10 10 9 6 5 4 3
16 14 12 13 14 14 15 16 16 15 15 15 17 17 16 14 14 14 14 14 14 15 15 14 14 14 14 15 15 14 13 13 13 12 11 11 11 11 11 11 11 9 8 7
14 12 13 14 14 14 16 14 14 15 17 19 17 20 17 15 15 15 15 15 15 15 14 14 14 14 14 15 14 14 13 13 13 13 13 13 13 14 13 13 12 11 11 11
14 14 14 14 13 13 14 14 15 16 18 19 18 19 17 15 16 16 15 15 15 14 14 14 14 14 14 14 14 14 14 14 14 14 14 14 14 14 14 14 14 13 12 12
14 13 13 13 13 13 13 15 15 17 18 21 18 18 18 16 15 15 15 15 14 14 14 14 13 14 14 15 15 15 14 14 14 14 14 15 15 15 15 15 15 14 14 14
15 14 13 12 14 14 14 16 19 20 21 20 16 18 16 14 13 14 15 15 14 14 15 15 15 14 14 15 15 14 15 15 15 15 15 15 15 15 16 16 16 16 15 15
16 17 14 13 13 14 15 15 19 24 22 20 16 18 16 14 14 14 14 14 14 15 14 14 15 14 14 14 15 15 15 15 15 15 15 15 15 15 15 15 15 16 16 16
16 16 14 14 14 12 15 16 14 17 17 18 17 17 14 14 14 14 14 14 14 14 14 14 13 14 14 14 15 15 15 15 15 15 15 15 14 14 14 14 14 15 15 15
13 17 13 13 13 14 14 13 17 17 24 22 18 17 16 15 15 14 14 14 13 13 13 13 13 14 14 14 14 14 14 14 14 14 14 14 14 14 14 15 15 15 15 15
12 14 15 13 14 14 15 15 15 13 16 21 23 18 13 13 13 14 13 13 13 13 13 13 13 14 13 13 13 13 14 13 13 13 14 14 14 15 15 15 15 16 16 14
11 13 18 15 13 12 12 13 13 16 18 17 17 16 11 11 12 12 12 12 12 12 13 13 13 13 14 14 14 14 13 13 13 13 13 13 14 14 15 16 15 15 14 14
11 16 22 18 15 13 14 13 12 13 15 19 19 17 12 12 12 12 11 11 12 12 13 13 13 13 13 13 13 14 13 13 12 13 13 14 15 15 15 14 15 14 14 14
9 15 17 18 17 15 16 14 13 15 20 20 16 16 13 12 12 12 12 11 12 13 13 13 14 13 13 13 14 14 14 13 13 13 14 14 14 14 14 14 14 15 14 14
11 17 14 15 15 15 16 15 14 15 15 18 16 16 13 12 12 12 11 11 12 13 14 14 14 14 13 13 13 13 13 13 13 13 14 14 14 14 14 14 14 14 14 14
14 20 18 21 16 14 16 15 15 14 14 14 13 14 10 11 13 14 13 12 12 13 13 13 13 13 13 13 13 12 13 12 12 13 13 13 13 12 12 12 12 13 13 13
16 19 21 21 18 19 23 20 16 15 15 15 17 14 16 14 13 13 13 14 14 14 13 13 13 13 12 12 12 12 12 12 12 12 12 12 12 12 12 12 13 14 14 14
15 17 18 21 24 28 18 17 16 16 15 16 16 18 16 15 14 14 14 14 13 13 12 12 12 13 12 12 12 12 11 11 12 13 14 13 13 14 14 14 15 15 15 16
13 15 19 20 26 21 17 16 17 17 18 17 17 16 14 14 15 16 13 13 13 12 11 11 11 11 11 12 11 11 12 12 13 13 13 14 15 17 16 17 17 17 18 18
15 14 17 28 27 26 19 18 16 15 22 20 20 19 16 15 20 17 13 12 11 11 10 10 10 11 11 12 12 13 13 14 14 14 14 15 16 20 19 18 19 19 20 19
24 23 17 19 21 22 16 15 14 22 19 18 18 15 16 16 14 13 12 11 10 10 9 10 10 11 12 12 13 14 14 15 15 16 16 17 17 19 20 20 20 21 21 21
21 23 24 24 24 25 16 15 17 15 13 13 13 13 14 13 12 12 11 11 10 10 10 10 12 12 13 13 15 16 16 15 17 17 18 20 21 21 20 22 21 21 22 23
20 19 22 20 20 14 14 13 11 11 12 12 12 11 11 11 11 11 10 10 10 10 10 12 14 14 14 15 16 18 17 17 18 23 24 24 22 21 20 22 22 22 22 23
16 15 18 18 15 14 12 10 10 10 11 10 10 10 10 11 10 10 10 10 10 12 13 14 15 15 16 16 16 19 18 18 26 28 25 23 22 21 20 20 20 22 22 23
15 16 18 17 14 13 12 12 11 10 9 9 9 9 9 9 9 9 10 11 11 12 14 15 16 16 17 17 18 19 19 21 25 24 22 22 21 22 21 20 20 20 19 19
14 14 15 16 11 11 11 10 9 9 9 9 9 9 9 9 9 10 11 12 13 15 16 17 17 18 18 19 19 21 23 23 26 23 21 21 21 21 20 21 21 16 15 15